カタログに戻る

AEROCUBE 8C

運用中科学PO
NORAD 41853·PAYLOAD·🇺🇸 United States

打ち上げ Nov 11, 2016 から Vandenberg Space Force Base

Loading…

次のパス (今後24時間)

TLE

最新Source: Space-Track

元期: Sep 14, 2026, 14:25 UTC

1 41853U 16067F   26257.60132483  .00006229  00000-0  24720-3 0  9997
2 41853  98.0397 131.6973 0006583 105.6881 254.5082 15.25748434539691

AllMySatでAEROCUBE 8Cをリアルタイム追跡

Download on the App Store